VTK601 UTAA-UZTT

Flight info

Callsign VTK601
Flight time 1h 13m
Altitude 35000
Route BUR29D BUROT B114 POGON/K0869F350 L143 TADEN Z580 OGRIP OGRIP2T
Aircraft MD11/H-SDE1E2E3FGHIJ2J3J4J5M1RWXY/LB1D1

Departure

Time 2026-04-17 11:23
Airport Ashgabat International Airport (UTAA)

Arrival

Time 2026-04-17 12:37
Airport Tashkent International Airport (UZTT)
Time Latitude Longitude Altitude Speed Heading
2026-04-17 11:14 37.98323 58.37444 678 ft 0 kts 163°
2026-04-17 11:19 37.98338 58.37439 678 ft 2 kts 163°
2026-04-17 11:19 37.98353 58.37433 676 ft 2 kts 163°
2026-04-17 11:19 37.98377 58.37422 678 ft 5 kts 125°
2026-04-17 11:20 37.98383 58.37402 678 ft 0 kts 76°
2026-04-17 11:21 37.98385 58.37414 678 ft 7 kts 76°
2026-04-17 11:21 37.98380 58.37536 677 ft 20 kts 108°
2026-04-17 11:22 37.98309 58.37719 678 ft 24 kts 119°
2026-04-17 11:22 37.98242 58.37915 678 ft 26 kts 92°
2026-04-17 11:22 37.98350 58.38026 676 ft 19 kts 340°
2026-04-17 11:22 37.98416 58.37929 675 ft 14 kts 301°
2026-04-17 11:23 37.98565 58.37593 676 ft 86 kts 300°
2026-04-17 11:23 37.98992 58.36625 678 ft 162 kts 299°
2026-04-17 11:23 37.99604 58.35301 1268 ft 177 kts 299°
2026-04-17 11:23 38.00197 58.33984 2478 ft 172 kts 301°
2026-04-17 11:24 38.00781 58.32645 3562 ft 175 kts 300°
2026-04-17 11:24 38.01384 58.31253 4377 ft 193 kts 300°
2026-04-17 11:24 38.02104 58.29610 4564 ft 232 kts 300°
2026-04-17 11:24 38.03031 58.27766 4826 ft 260 kts 311°
2026-04-17 11:25 38.04433 58.26320 5856 ft 262 kts 333°
2026-04-17 11:25 38.06211 58.25750 6866 ft 271 kts 359°
2026-04-17 11:25 38.08047 58.26350 7882 ft 279 kts 28°
2026-04-17 11:25 38.09454 58.28035 8913 ft 284 kts 58°
2026-04-17 11:26 38.10045 58.30419 9930 ft 289 kts 88°
2026-04-17 11:26 38.09781 58.32988 10458 ft 307 kts 105°
2026-04-17 11:26 38.09104 58.35705 10610 ft 337 kts 107°
2026-04-17 11:26 38.08817 58.38758 10850 ft 361 kts 83°
2026-04-17 11:27 38.09530 58.41817 11707 ft 366 kts 63°
2026-04-17 11:27 38.10844 58.44608 12606 ft 370 kts 54°
2026-04-17 11:27 38.12348 58.47283 13480 ft 375 kts 52°
2026-04-17 11:27 38.13892 58.49973 14297 ft 379 kts 52°
2026-04-17 11:28 38.15433 58.52722 14996 ft 385 kts 53°
2026-04-17 11:28 38.16945 58.55506 15658 ft 391 kts 53°
2026-04-17 11:28 38.18477 58.58396 16308 ft 397 kts 54°
2026-04-17 11:28 38.20012 58.61339 16953 ft 403 kts 54°
2026-04-17 11:29 38.21562 58.64338 17598 ft 408 kts 54°
2026-04-17 11:29 38.23127 58.67380 18222 ft 414 kts 54°
2026-04-17 11:29 38.24711 58.70466 18797 ft 419 kts 54°
2026-04-17 11:29 38.26315 58.73592 19313 ft 424 kts 54°
2026-04-17 11:30 38.27931 58.76748 19835 ft 428 kts 54°
2026-04-17 11:30 38.29569 58.79949 20332 ft 433 kts 54°
2026-04-17 11:30 38.31218 58.83178 20853 ft 437 kts 54°
2026-04-17 11:30 38.32885 58.86444 21341 ft 442 kts 54°
2026-04-17 11:31 38.34572 58.89748 21862 ft 447 kts 54°
2026-04-17 11:31 38.36273 58.93086 22385 ft 451 kts 54°
2026-04-17 11:31 38.37992 58.96463 22925 ft 456 kts 54°
2026-04-17 11:31 38.39703 58.99828 23465 ft 461 kts 54°
2026-04-17 11:32 38.41455 59.03274 23961 ft 465 kts 54°
2026-04-17 11:32 38.43245 59.06800 24420 ft 470 kts 54°
2026-04-17 11:32 38.45028 59.10315 24911 ft 474 kts 54°
2026-04-17 11:32 38.46799 59.13811 25408 ft 477 kts 54°
2026-04-17 11:33 38.48641 59.17355 25916 ft 481 kts 53°
2026-04-17 11:33 38.50561 59.20874 26409 ft 484 kts 52°
2026-04-17 11:33 38.52527 59.24380 26896 ft 488 kts 51°
2026-04-17 11:33 38.54527 59.27902 27411 ft 491 kts 51°
2026-04-17 11:34 38.56539 59.31436 27974 ft 493 kts 51°
2026-04-17 11:34 38.58565 59.35003 28434 ft 498 kts 51°
2026-04-17 11:34 38.60504 59.38697 28867 ft 504 kts 57°
2026-04-17 11:34 38.62206 59.42638 29315 ft 509 kts 61°
2026-04-17 11:35 38.63767 59.46721 29763 ft 513 kts 63°
2026-04-17 11:35 38.65277 59.50884 30178 ft 517 kts 64°
2026-04-17 11:35 38.66785 59.55077 30539 ft 521 kts 64°
2026-04-17 11:35 38.68317 59.59294 30901 ft 523 kts 63°
2026-04-17 11:36 38.69869 59.63513 31302 ft 524 kts 63°
2026-04-17 11:36 38.71437 59.67732 31738 ft 525 kts 63°
2026-04-17 11:36 38.73011 59.71951 32174 ft 525 kts 63°
2026-04-17 11:36 38.74585 59.76161 32609 ft 524 kts 63°
2026-04-17 11:37 38.76160 59.80379 33032 ft 524 kts 63°
2026-04-17 11:37 38.77730 59.84591 33440 ft 524 kts 63°
2026-04-17 11:37 38.79299 59.88808 33873 ft 523 kts 63°
2026-04-17 11:37 38.80863 59.93018 34240 ft 524 kts 64°
2026-04-17 11:38 38.82425 59.97236 34563 ft 523 kts 64°
2026-04-17 11:38 38.83984 60.01452 34885 ft 523 kts 64°
2026-04-17 11:38 38.85542 60.05666 35146 ft 524 kts 64°
2026-04-17 11:38 38.87102 60.09890 35221 ft 523 kts 64°
2026-04-17 11:39 38.90209 60.18329 35237 ft 523 kts 64°
2026-04-17 11:39 38.93293 60.26732 35238 ft 524 kts 64°
2026-04-17 11:40 38.96391 60.35209 35241 ft 524 kts 64°
2026-04-17 11:40 38.99463 60.43708 35241 ft 524 kts 64°
2026-04-17 11:41 39.02542 60.52210 35237 ft 525 kts 65°
2026-04-17 11:41 39.05631 60.60726 35237 ft 525 kts 65°
2026-04-17 11:42 39.08714 60.69244 35238 ft 525 kts 65°
2026-04-17 11:42 39.11792 60.77767 35243 ft 525 kts 65°
2026-04-17 11:43 39.14869 60.86318 35241 ft 526 kts 65°
2026-04-17 11:43 39.17961 60.94869 35241 ft 527 kts 64°
2026-04-17 11:44 39.21145 61.03376 35240 ft 527 kts 64°
2026-04-17 11:44 39.24365 61.11869 35241 ft 528 kts 64°
2026-04-17 11:45 39.27588 61.20394 35241 ft 528 kts 64°
2026-04-17 11:45 39.30794 61.28923 35249 ft 528 kts 64°
2026-04-17 11:46 39.33987 61.37437 35244 ft 527 kts 64°
2026-04-17 11:46 39.37157 61.45924 35244 ft 528 kts 64°
2026-04-17 11:47 39.40342 61.54474 35243 ft 527 kts 64°
2026-04-17 11:47 39.43516 61.63024 35244 ft 527 kts 64°
2026-04-17 11:48 39.46685 61.71584 35245 ft 528 kts 65°
2026-04-17 11:48 39.49851 61.80149 35244 ft 528 kts 65°
2026-04-17 11:49 39.53009 61.88725 35243 ft 527 kts 65°
2026-04-17 11:49 39.56133 61.97323 35242 ft 528 kts 65°
2026-04-17 11:50 39.59264 62.05931 35241 ft 528 kts 65°
2026-04-17 11:50 39.62387 62.14498 35241 ft 528 kts 65°
2026-04-17 11:51 39.65526 62.23120 35233 ft 529 kts 65°
2026-04-17 11:51 39.68664 62.31768 35235 ft 530 kts 65°
2026-04-17 11:52 39.71799 62.40433 35235 ft 530 kts 65°
2026-04-17 11:52 39.74930 62.49110 35233 ft 530 kts 65°
2026-04-17 11:53 39.78054 62.57796 35230 ft 532 kts 66°
2026-04-17 11:53 39.81188 62.66540 35233 ft 534 kts 66°
2026-04-17 11:54 39.84291 62.75316 35232 ft 534 kts 69°
2026-04-17 11:54 39.86515 62.84486 35226 ft 531 kts 78°
2026-04-17 11:55 39.88178 62.93882 35232 ft 533 kts 80°
2026-04-17 11:55 39.89845 63.03301 35235 ft 534 kts 79°
2026-04-17 11:56 39.91588 63.12702 35235 ft 534 kts 79°
2026-04-17 11:56 39.93344 63.22056 35235 ft 536 kts 79°
2026-04-17 11:57 39.95108 63.31491 35235 ft 536 kts 79°
2026-04-17 11:57 39.96857 63.40927 35235 ft 536 kts 79°
2026-04-17 11:58 39.98601 63.50387 35238 ft 538 kts 79°
2026-04-17 11:58 40.00341 63.59872 35238 ft 538 kts 79°
2026-04-17 11:59 40.02068 63.69368 35238 ft 538 kts 80°
2026-04-17 11:59 40.03773 63.78868 35232 ft 538 kts 80°
2026-04-17 12:00 40.05494 63.88386 35241 ft 539 kts 80°
2026-04-17 12:00 40.07221 63.97921 35241 ft 540 kts 80°
2026-04-17 12:01 40.08929 64.07393 35230 ft 539 kts 80°
2026-04-17 12:01 40.10637 64.16936 35238 ft 540 kts 80°
2026-04-17 12:02 40.12340 64.26497 35238 ft 540 kts 80°
2026-04-17 12:02 40.14036 64.36061 35227 ft 540 kts 80°
2026-04-17 12:03 40.15724 64.45626 35234 ft 541 kts 80°
2026-04-17 12:03 40.17405 64.55207 35235 ft 541 kts 80°
2026-04-17 12:04 40.19079 64.64794 35238 ft 541 kts 80°
2026-04-17 12:04 40.20739 64.74382 35238 ft 540 kts 81°
2026-04-17 12:05 40.22364 64.83977 35238 ft 540 kts 81°
2026-04-17 12:05 40.23719 64.91949 35238 ft 540 kts 81°
2026-04-17 12:06 40.25355 65.01546 35237 ft 541 kts 80°
2026-04-17 12:06 40.26991 65.11160 35237 ft 541 kts 80°
2026-04-17 12:07 40.28622 65.20779 35238 ft 541 kts 81°
2026-04-17 12:07 40.30242 65.30408 35220 ft 541 kts 81°
2026-04-17 12:08 40.31852 65.40027 35235 ft 540 kts 81°
2026-04-17 12:08 40.33452 65.49641 35238 ft 540 kts 81°
2026-04-17 12:09 40.35033 65.59262 35242 ft 540 kts 81°
2026-04-17 12:09 40.36597 65.68884 35236 ft 540 kts 81°
2026-04-17 12:10 40.38168 65.78507 35236 ft 539 kts 81°
2026-04-17 12:10 40.39727 65.88065 35239 ft 539 kts 81°
2026-04-17 12:11 40.41289 65.97681 35228 ft 539 kts 81°
2026-04-17 12:12 40.43619 66.12123 35234 ft 539 kts 81°
2026-04-17 12:12 40.45155 66.21757 35237 ft 539 kts 81°
2026-04-17 12:13 40.46678 66.31405 35234 ft 539 kts 81°
2026-04-17 12:13 40.48205 66.41043 35234 ft 539 kts 81°
2026-04-17 12:14 40.49732 66.50686 35231 ft 539 kts 81°
2026-04-17 12:14 40.51254 66.60333 35232 ft 539 kts 81°
2026-04-17 12:15 40.52762 66.69976 35234 ft 538 kts 81°
2026-04-17 12:15 40.54261 66.79629 35237 ft 540 kts 81°
2026-04-17 12:16 40.55820 66.89279 35238 ft 540 kts 77°
2026-04-17 12:16 40.58281 66.98646 35245 ft 544 kts 69°
2026-04-17 12:17 40.61211 67.07823 35249 ft 545 kts 68°
2026-04-17 12:17 40.64124 67.17029 35248 ft 544 kts 69°
2026-04-17 12:18 40.66956 67.26282 35243 ft 545 kts 69°
2026-04-17 12:18 40.69760 67.35574 35243 ft 546 kts 69°
2026-04-17 12:19 40.72565 67.44890 35242 ft 546 kts 69°
2026-04-17 12:19 40.75359 67.54187 34918 ft 541 kts 69°
2026-04-17 12:19 40.76742 67.58794 34420 ft 540 kts 69°
2026-04-17 12:20 40.78123 67.63411 33727 ft 542 kts 69°
2026-04-17 12:20 40.79503 67.68039 33047 ft 542 kts 69°
2026-04-17 12:20 40.80883 67.72668 32393 ft 543 kts 69°
2026-04-17 12:20 40.82262 67.77305 31748 ft 543 kts 69°
2026-04-17 12:21 40.83642 67.81948 31113 ft 543 kts 69°
2026-04-17 12:21 40.85022 67.86601 30503 ft 544 kts 69°
2026-04-17 12:21 40.86400 67.91262 29798 ft 546 kts 69°
2026-04-17 12:21 40.87765 67.95939 29098 ft 544 kts 70°
2026-04-17 12:22 40.89114 68.00575 28433 ft 537 kts 69°
2026-04-17 12:22 40.90447 68.05145 27786 ft 530 kts 69°
2026-04-17 12:22 40.91763 68.09655 27176 ft 522 kts 70°
2026-04-17 12:22 40.92977 68.14144 26510 ft 515 kts 72°
2026-04-17 12:23 40.94073 68.18621 25768 ft 508 kts 73°
2026-04-17 12:23 40.95099 68.23050 25036 ft 500 kts 74°
2026-04-17 12:23 40.96076 68.27359 24330 ft 492 kts 74°
2026-04-17 12:23 40.97049 68.31655 23609 ft 484 kts 74°
2026-04-17 12:24 40.98010 68.35878 22825 ft 475 kts 74°
2026-04-17 12:24 40.98961 68.40033 22126 ft 468 kts 74°
2026-04-17 12:24 40.99899 68.44116 21442 ft 460 kts 74°
2026-04-17 12:24 41.00826 68.48144 20798 ft 454 kts 74°
2026-04-17 12:25 41.01738 68.52113 20159 ft 448 kts 73°
2026-04-17 12:25 41.02638 68.56033 19506 ft 442 kts 73°
2026-04-17 12:25 41.03526 68.59905 18879 ft 437 kts 73°
2026-04-17 12:25 41.04402 68.63733 18207 ft 431 kts 73°
2026-04-17 12:26 41.05264 68.67508 17546 ft 425 kts 73°
2026-04-17 12:26 41.06114 68.71239 16925 ft 421 kts 73°
2026-04-17 12:26 41.06954 68.74932 16308 ft 417 kts 73°
2026-04-17 12:26 41.07785 68.78587 15715 ft 412 kts 73°
2026-04-17 12:27 41.08607 68.82214 15122 ft 408 kts 73°
2026-04-17 12:27 41.09418 68.85799 14541 ft 404 kts 73°
2026-04-17 12:27 41.10222 68.89356 13950 ft 401 kts 73°
2026-04-17 12:27 41.11017 68.92883 13322 ft 397 kts 73°
2026-04-17 12:28 41.11792 68.96373 12738 ft 392 kts 75°
2026-04-17 12:28 41.12383 68.99882 12157 ft 388 kts 79°
2026-04-17 12:28 41.12826 69.03390 11634 ft 384 kts 81°
2026-04-17 12:28 41.13212 69.06867 11242 ft 379 kts 82°
2026-04-17 12:29 41.13482 69.09395 11085 ft 373 kts 82°
2026-04-17 12:29 41.13837 69.12697 10986 ft 352 kts 82°
2026-04-17 12:29 41.14178 69.15868 10859 ft 335 kts 82°
2026-04-17 12:29 41.14507 69.18819 10733 ft 320 kts 82°
2026-04-17 12:30 41.14826 69.21668 10613 ft 305 kts 81°
2026-04-17 12:30 41.15137 69.24428 10342 ft 301 kts 81°
2026-04-17 12:30 41.15448 69.27189 9770 ft 304 kts 81°
2026-04-17 12:30 41.15763 69.29977 9216 ft 306 kts 81°
2026-04-17 12:31 41.16077 69.32775 8669 ft 307 kts 81°
2026-04-17 12:31 41.16391 69.35571 8172 ft 306 kts 81°
2026-04-17 12:31 41.16705 69.38362 7697 ft 305 kts 81°
2026-04-17 12:31 41.17013 69.41142 7218 ft 303 kts 81°
2026-04-17 12:32 41.17317 69.43891 6767 ft 299 kts 81°
2026-04-17 12:32 41.17617 69.46609 6301 ft 296 kts 81°
2026-04-17 12:32 41.18054 69.49249 5876 ft 289 kts 68°
2026-04-17 12:32 41.19125 69.51438 5481 ft 282 kts 41°
2026-04-17 12:33 41.20826 69.52604 5094 ft 275 kts 11°
2026-04-17 12:33 41.22712 69.52683 4727 ft 270 kts 355°
2026-04-17 12:33 41.24559 69.52352 4427 ft 263 kts 347°
2026-04-17 12:33 41.26204 69.51491 4375 ft 247 kts 327°
2026-04-17 12:34 41.27367 69.49913 4365 ft 236 kts 301°
2026-04-17 12:34 41.27862 69.47847 4370 ft 238 kts 275°
2026-04-17 12:34 41.27819 69.45604 4011 ft 251 kts 265°
2026-04-17 12:34 41.27547 69.43304 3438 ft 247 kts 261°
2026-04-17 12:35 41.27252 69.41138 3122 ft 227 kts 262°
2026-04-17 12:35 41.27042 69.39182 2829 ft 203 kts 264°
2026-04-17 12:35 41.26860 69.37426 2529 ft 180 kts 264°
2026-04-17 12:35 41.26694 69.35873 2283 ft 165 kts 263°
2026-04-17 12:37 41.25761 69.27428 1387 ft 20 kts 262°